Bermuda/L.F. Wade International Airport

Airport
ICAO code: 
TXKF
IATA Code: 
BDA
Summary
ICAO Region: 
NAT
Territory: 
Location: 
St. George's, Bermuda
Serving: 
Hamilton
Elevation: 
16 ft
Coordinates: 
Aerial View: 
32° 21' 50" N, 64° 40' 43" W
Airport RE: 
Crosswind Landings
Metar
Observation
TXKF 271955Z 15008KT 9999 VCSH FEW009TCU SCT083 BKN110 BKN180 25/23 Q1022
Station
Bermuda
Date/Time
2022-06-27 19:55:00
Wind direction
150°
Wind speed
08 kts
Lowest cloud amount
few clouds
Temperature
25°C
Dew point
23°C
Humidity
88%
QNH
1022 hPa
Weather condition
in vicinity: showers

International airport serving island of Bermuda. It is located in the parish of St. George's and is 16 km east of Bermuda's capital city of Hamilton.

Climatology

Humid “subtropical” climate (Köppen climate classification Cfa) - characterized by hot, humid summers and cool winters. Significant amounts of precipitation occur in all seasons in most areas. Winter rainfall (and sometimes snowfall) is associated with large storms that the westerlies steer from west to east. Most summer rainfall occurs during thunderstorms.

Runways

Designator Length Width Surface Rops
12/30 2961 46 ASP Yes/Yes
Airport map: 
Aerial View: 

SKYbrary Partners:

Safety knowledge contributed by: